Startseite
Über Mich
AHP4
Galerie
Sehschlangen
Tourenbuch
Bookmarks
Elektronik
Bewertung
Geschichten
[Tagesmessung] [Jahreswerte] [Information]

Messwerte vom 24.06.2022

Die letzten Messwerte von 23:58:49 Uhr:
KategorieMesswert
Temperatur [°C]17
Luftdruck [mBar]993
Sonneneinstrahlung0
Wind [km/h]0 aus Nordwest
Niederschlag [l/m²]0
rel.Luftfeucht.96.6%
CO2 [ppm]550

Diagramme
Messwerte vom 24.06.2022
Tagesaggregation
KategorieMinimumMaximumSchnittSumme
Temperatur [°C]163221.5521
Luftdruck [mBar]990995991.9729
Sonneneinstrahlung247139.1396
Wind [km/h]20
rF [%]40.896.672.31
Niederschlag [l/m²]7.21
CO2 [ppm]403712537.2
Einordnung alsVegetationstag
Sommertag
Heißer Tag

Messungen an benachbarten Tagen: Zur Jahresaggregation 2022
Tabelle aller Messwerte
UhrzeitTemperatur [°C]Luftdruck [mBar]SonneWind [km/h]RichtungRegen [l/m²]rF [%]CO2 [ppm]
00:01:48 17 995 0 0 N 0 65.2 559
00:04:47 17 995 0 0 N 0 65.8 562
00:07:49 17 995 0 0 SO 0 64.8 568
00:10:47 17 995 0 0 SO 0 65 565
00:13:47 17 995 0 0 NW 0 65.2 564
00:16:47 17 995 0 0 NW 0 65.4 577
00:19:48 17 995 0 0 NW 0 65 580
00:22:48 17 995 0 0 NW 0 65.1 585
00:25:46 17 995 0 0 NW 0 65 577
00:28:48 17 995 0 0 NW 0 64.7 583
00:31:50 17 995 0 0 NW 0 64.8 585
00:34:49 17 995 0 0 NW 0 65.3 590
00:37:48 17 995 0 0 NW 0 65.2 592
00:40:48 17 995 0 0 NW 0 65 597
00:43:48 17 995 0 0 NW 0 65.6 600
00:46:48 17 995 0 0 NW 0 66.4 601
00:49:48 17 995 0 0 NW 0 66.1 609
00:52:50 17 995 0 0 NW 0 66 612
00:55:46 17 995 0 0 NW 0 66.2 615
00:58:50 16 995 0 0 NW 0 66.7 609
01:01:49 16 995 0 0 NW 0 67.5 621
01:04:46 16 995 0 0 O 0 68.5 627
01:07:46 16 994 0 0 NO 0 70 635
01:10:46 16 995 0 0 N 0 71.7 626
01:13:45 16 994 0 0 O 0 72.1 626
01:16:46 16 995 0 0 O 0 71 624
01:19:45 16 995 0 0 S 0 71.1 632
01:22:47 16 995 0 0 NO 0 71.2 637
01:25:47 16 995 0 0 NO 0 71 640
01:28:47 16 995 0 0 NO 0 71.1 641
01:31:46 17 995 0 4 NO 0 70.6 646
01:34:50 17 995 0 1 NO 0 68.2 647
01:37:45 17 995 0 1 S 0 68 653
01:40:46 18 995 0 1 O 0 66 647
01:43:48 18 995 0 3 O 0 64.9 651
01:46:49 18 995 0 3 NW 0 64.5 653
01:49:49 18 995 0 3 NO 0 63.6 653
01:52:47 18 995 0 4 NO 0 62.8 648
01:55:47 18 995 0 0 O 0 62 659
01:58:46 19 995 0 1 O 0 61.4 655
02:01:46 19 995 0 0 O 0 61.2 656
02:04:46 18 995 0 0 SO 0 61.5 646
02:07:46 18 995 0 2 N 0 62.2 655
02:10:47 18 995 0 1 O 0 62.3 658
02:13:49 18 994 0 0 O 0 62.2 670
02:16:45 18 995 0 0 O 0 62.2 667
02:19:45 18 994 0 0 O 0 62.8 671
02:22:46 17 995 0 0 O 0 63.5 670
02:25:47 17 994 0 0 O 0 63.8 667
02:28:47 17 994 0 0 O 0 64.7 673
02:31:47 17 994 0 0 O 0 65 685
02:34:49 17 994 0 0 SO 0 65.4 685
02:37:48 17 994 0 0 SO 0 66 690
02:40:47 16 994 0 0 SO 0 66.7 696
02:43:46 17 994 0 1 SO 0 67.2 697
02:46:47 16 994 0 0 NO 0 67.6 694
02:49:48 16 994 0 0 O 0 68 702
02:52:47 16 994 0 0 O 0 68 702
02:55:49 16 994 0 0 SO 0 68.1 703
02:58:46 16 994 0 0 N 0 68.2 709
03:01:51 16 995 0 0 N 0 68.9 712
03:04:49 16 995 0 2 NW 0 69.5 702
03:07:46 17 995 0 2 O 0 69.7 694
03:10:51 17 994 0 0 O 0 68.2 692
03:13:46 18 994 0 0 O 0 67.6 682
03:16:47 18 994 0 2 NO 0 66.4 682
03:19:46 18 994 0 1 N 0 65.9 678
03:22:48 18 994 0 0 NO 0 65.2 683
03:25:48 18 994 0 0 W 0 64.8 682
03:28:45 18 994 0 1 O 0 64.4 676
03:31:46 18 994 0 0 O 0 64 672
03:34:46 18 994 0 0 O 0 63.8 667
03:37:46 18 993 0 0 N 0 63.6 667
03:40:50 18 994 0 0 SO 0 63.7 667
03:43:49 18 994 0 0 NO 0 63.8 670
03:46:45 18 993 0 0 O 0 64 661
03:49:46 18 994 0 0 N 0 64.4 656
03:52:48 18 993 0 0 NO 0 64.6 656
03:55:47 18 993 0 0 NO 0 64.9 653
03:58:48 18 993 0 0 NW 0 65.1 653
04:01:45 18 994 0 0 N 0 65.3 651
04:04:46 18 994 0 0 NO 0 65.7 653
04:07:47 18 994 0 0 NO 0 65.8 655
04:10:47 18 993 0 0 O 0 66.3 653
04:13:45 18 994 0 0 O 0 66.5 656
04:16:49 17 993 0 0 O 0 66.5 653
04:19:45 17 993 3 0 O 0 66.8 649
04:22:46 17 994 4 0 O 0 66.8 642
04:25:49 17 993 6 0 NW 0 67.1 641
04:28:45 17 993 8 0 NO 0 67.1 644
04:31:46 17 994 11 0 NW 0 67.4 639
04:34:46 17 993 15 0 S 0 67.4 633
04:37:46 17 993 20 0 NW 0 67.4 634
04:40:47 17 992 25 0 NW 0 67.4 629
04:43:46 17 993 32 1 O 0 67.5 642
04:46:47 17 993 39 0 SO 0 67.5 641
04:49:45 17 992 47 1 N 0 67.1 644
04:52:48 18 993 56 0 SW 0 66.6 642
04:55:47 18 993 65 0 SO 0 66.6 642
04:58:45 18 993 73 0 N 0 66.3 641
05:01:47 18 993 81 0 0 66.2 637
05:04:47 18 993 88 1 O 0 66.4 632
05:07:46 18 993 95 1 O 0 66 633
05:10:47 18 992 103 3 O 0 65.9 627
05:13:48 18 993 109 1 NO 0 66.3 622
05:16:47 18 993 115 0 NW 0 66.3 630
05:19:47 18 992 123 0 O 0 65.7 618
05:22:48 18 992 130 1 NW 0 65.7 609
05:25:48 18 992 134 6 SW 0 66.2 612
05:28:47 18 992 140 1 SO 0 66.1 615
05:31:46 18 994 145 1 O 0 65.8 621
05:34:47 18 992 150 1 S 0 66.1 626
05:37:48 18 993 153 3 SO 0 66.1 625
05:40:46 18 992 155 2 N 0 66.6 627
05:43:49 18 993 157 0 NW 0 66.6 627
05:46:46 18 992 163 3 N 0 66.5 626
05:49:50 18 992 166 3 SO 0 66.4 627
05:52:49 18 993 168 3 S 0 66.3 627
05:55:48 18 992 168 1 O 0 66.3 626
05:58:47 18 992 169 0 O 0 66.5 614
06:01:46 18 991 172 1 O 0 66.2 612
06:04:47 18 992 173 1 SO 0 65.7 600
06:07:50 18 992 174 3 SO 0 65.8 609
06:10:48 18 993 175 3 SO 0 65.4 592
06:13:48 18 992 176 1 SO 0 65.5 597
06:16:47 18 993 177 3 S 0 65.3 591
06:19:46 19 992 179 4 N 0 65.2 593
06:22:47 19 992 179 4 O 0 64.9 594
06:25:48 19 991 179 0 NO 0 65.1 594
06:28:49 19 992 179 3 SO 0 65.1 594
06:31:48 19 992 181 0 SO 0 64.7 597
06:34:46 19 993 184 2 O 0 64.9 594
06:37:48 19 991 185 0 O 0 65.1 599
06:40:49 19 992 186 2 SO 0 64.9 600
06:43:50 19 991 188 3 S 0 64.8 596
06:46:46 19 991 188 1 O 0 64.4 594
06:49:50 20 992 187 5 NO 0 64.4 589
06:52:47 20 992 185 5 SO 0 64 591
06:55:47 20 992 186 4 O 0 64.2 597
06:58:48 20 992 186 0 W 0 64 595
07:01:45 20 991 187 3 O 0 64.5 591
07:04:48 20 992 187 9 SO 0 64 585
07:07:47 20 991 187 6 O 0 64.1 579
07:10:48 20 991 170 4 O 0 63.8 571
07:13:46 20 991 175 3 S 0 63.9 573
07:16:48 20 992 176 3 O 0 63.5 512
07:19:50 20 992 176 1 NO 0 63.4 407
07:22:48 21 992 177 4 SO 0 62.9 406
07:25:50 21 992 177 4 SO 0 62 404
07:28:48 21 992 178 7 SO 0 61.5 406
07:31:47 22 992 179 2 N 0 60.7 403
07:34:48 23 992 182 4 SO 0 57.5 406
07:37:46 23 992 193 4 O 0 56 406
07:40:46 24 992 193 3 O 0 54.9 406
07:43:49 24 992 193 5 SO 0 53.4 406
07:46:49 25 992 194 3 SW 0 52.5 407
07:49:46 26 992 194 6 S 0 47.6 403
07:52:49 27 992 191 8 SW 0 44.6 406
07:55:47 27 992 189 11 S 0 43.9 406
07:58:48 28 992 189 12 SO 0 43.4 407
08:01:48 28 992 188 7 S 0 42.7 404
08:04:48 28 992 188 6 W 0 42.5 442
08:07:47 29 991 188 9 0 41.4 442
08:10:50 28 992 189 6 SO 0 40.8 442
08:13:48 27 992 188 6 SO 0 41.1 439
08:16:49 26 992 188 8 SO 0 43.2 441
08:19:47 25 992 188 8 S 0 45.6 436
08:22:48 25 992 188 9 S 0 46.6 439
08:25:49 24 992 188 5 SO 0 49.3 444
08:28:48 24 992 188 11 0 49.7 445
08:31:47 24 992 189 4 S 0 50.4 440
08:34:46 24 991 189 6 S 0 51 442
08:37:47 24 992 189 6 S 0 50.5 444
08:40:52 24 991 189 10 SW 0 50.8 450
08:43:48 24 991 189 5 O 0 51.6 445
08:46:48 24 992 189 7 SO 0 52.4 444
08:49:46 24 991 189 9 SO 0 51.4 447
08:52:49 24 991 190 4 O 0 52.4 457
08:55:49 24 992 190 9 SO 0 53.2 456
08:58:47 24 991 190 9 SO 0 51.4 459
09:01:47 24 992 190 8 S 0 51 450
09:04:48 24 991 192 1 N 0 51.4 454
09:07:49 25 992 193 1 NO 0 53 453
09:10:48 25 991 194 9 S 0 53 457
09:13:47 25 992 195 12 S 0 52.4 457
09:16:47 25 992 196 3 O 0 51.7 456
09:19:46 25 991 196 5 S 0 53 447
09:22:47 25 991 197 3 SW 0 51.6 444
09:25:47 25 992 197 6 SW 0 51 444
09:28:48 25 992 197 4 SO 0 51.5 448
09:31:48 25 991 198 11 SO 0 51.6 451
09:34:50 25 991 198 7 S 0 50.6 457
09:37:48 25 991 198 6 SO 0 50.5 459
09:40:49 25 991 198 10 S 0 51.2 457
09:43:49 25 992 198 20 S 0 50.8 453
09:46:48 25 991 198 6 SO 0 50.9 445
09:49:48 26 991 198 11 SO 0 50.8 450
09:52:47 26 991 198 9 SO 0 51 451
09:55:48 26 991 198 12 SO 0 51.3 456
09:58:46 26 991 199 13 SO 0 51.3 456
10:01:45 26 991 199 4 S 0 51.1 454
10:04:49 26 991 199 9 SO 0 50.4 450
10:07:48 26 991 200 5 S 0 50 454
10:10:47 26 991 200 13 S 0 50.6 459
10:13:49 27 991 200 10 SW 0 50.7 454
10:16:48 27 991 200 4 SO 0 50.4 451
10:19:47 27 991 201 2 S 0 49.8 450
10:22:48 27 991 201 3 O 0 50.5 454
10:25:48 27 991 201 19 O 0 50.7 454
10:28:48 27 991 202 13 SO 0 50.4 448
10:31:48 27 991 202 8 S 0 49.7 451
10:34:46 27 991 203 6 S 0 49.8 454
10:37:48 27 991 203 3 SO 0 49.2 453
10:40:49 27 991 204 7 SO 0 49.9 454
10:43:50 28 991 204 4 SO 0 49.3 448
10:46:48 28 991 205 9 SW 0 49.4 445
10:49:48 28 991 205 9 S 0 49.8 445
10:52:47 28 991 206 5 NO 0 50 444
10:55:47 28 991 206 1 N 0 48.7 442
10:58:47 28 991 206 6 SO 0 50.6 442
11:01:47 28 991 206 7 SW 0 50.8 447
11:04:47 28 991 207 8 O 0 50.5 454
11:07:46 28 991 207 12 O 0 50.8 453
11:10:47 28 991 207 7 S 0 49.8 451
11:13:47 28 991 206 3 0 48.9 447
11:16:48 28 991 208 5 SO 0 48.5 447
11:19:47 28 991 207 7 SO 0 49.3 445
11:22:44 28 991 210 1 N 0 48.5 448
11:25:50 29 991 217 7 SO 0 49.6 448
11:28:47 29 991 220 8 S 0 49.5 450
11:31:51 30 991 219 7 S 0 48.8 445
11:34:46 30 991 219 5 0 47.6 444
11:37:46 30 991 221 9 S 0 47 442
11:40:48 29 991 225 11 SO 0 47 436
11:43:48 29 991 226 12 O 0 46.9 442
11:46:48 29 991 228 6 SO 0 46.7 447
11:49:50 30 991 228 6 SO 0 47.5 453
11:52:47 30 991 229 3 O 0 45.7 445
11:55:48 31 991 227 2 S 0 45 436
11:58:46 31 991 222 2 S 0 42.4 433
12:01:48 31 991 225 12 SO 0 42 434
12:04:50 31 991 225 9 SO 0 43.1 436
12:07:47 32 991 226 4 NO 0 42.1 439
12:10:48 32 991 224 4 SO 0 42.9 439
12:13:48 32 991 222 7 SO 0 41.6 430
12:16:47 32 991 214 11 O 0 41.9 430
12:19:47 31 991 197 4 S 0 41.9 425
12:22:50 30 990 200 10 SO 0 42.2 433
12:25:46 30 991 194 15 S 0 43.2 427
12:28:51 29 990 189 12 S 0 44.1 430
12:31:49 29 991 193 8 SO 0 48.3 433
12:34:46 27 991 196 4 O 0 55.3 430
12:37:48 28 991 187 7 S 2.575 62.3 430
12:40:48 27 991 208 8 N 1.2875 69.3 430
12:43:49 27 991 206 3 NO 1.03 76.3 438
12:46:49 26 991 202 4 SO 0.2575 83.3 433
12:49:47 26 991 213 6 W 0 90.3 433
12:52:49 26 990 225 0 O 0 94.4 430
12:55:48 25 991 225 2 NO 0 95.4 433
12:58:48 25 991 222 0 S 0 96.6 436
13:01:49 22 991 222 4 W 0 96.6 427
13:04:48 23 991 221 5 W 0.2575 96 433
13:07:47 23 991 221 4 NW 0 93.1 430
13:10:50 23 991 223 9 NW 0 92.2 430
13:13:48 23 991 221 3 SO 0 91.1 430
13:16:46 23 991 217 0 S 0 90.2 427
13:19:48 23 991 212 2 SO 0 90.2 430
13:22:48 23 991 210 2 S 0 88 434
13:25:49 23 992 211 2 SO 0 87.1 436
13:28:48 23 991 213 0 W 0 85.4 436
13:31:49 23 991 217 0 SO 0 86.4 430
13:34:46 23 991 221 2 O 0 86.6 424
13:37:48 24 991 225 6 SO 0 85 418
13:40:50 24 991 229 7 SO 0 83.4 430
13:43:46 24 991 226 7 W 0 83 433
13:46:46 24 991 224 1 S 0 82.6 438
13:49:47 24 991 221 7 S 0 80.1 439
13:52:47 24 991 220 9 S 0 79 442
13:55:45 24 991 210 7 S 0 79.5 436
13:58:47 23 991 198 7 SW 0 78.7 431
14:01:47 23 991 197 6 S 0 79.7 433
14:04:31 23 992 205 5 S 0 71.7 436
14:07:46 21 992 206 9 S 0 84.1 436
14:10:47 21 992 206 3 S 0 85.8 430
14:13:49 21 992 204 8 SW 0 87 427
14:16:48 21 991 206 3 S 0 87.1 427
14:19:48 21 991 216 1 SO 0 88.1 433
14:22:48 21 992 224 3 O 0 89.3 436
14:25:49 21 991 228 0 O 0 90 430
14:28:49 21 991 230 3 SO 0 90.1 424
14:31:50 21 992 224 5 S 0 89.8 428
14:34:48 22 991 216 7 S 0 88.6 430
14:37:48 22 991 210 2 SO 0 87.5 433
14:40:47 22 992 204 7 SO 0 87.4 433
14:43:47 21 991 204 4 S 0 86 433
14:46:48 21 992 204 1 SO 0 86.7 433
14:49:47 21 991 204 6 S 0 87 433
14:52:50 21 991 208 4 SO 0 87.3 436
14:55:48 21 991 213 3 SO 0 87.8 430
14:58:48 21 991 215 2 SO 0 88.4 437
15:01:49 21 991 219 0 NO 0 89 433
15:04:46 21 992 219 0 O 0 89 436
15:07:49 22 991 218 0 SO 0 88.6 436
15:10:48 22 991 216 0 SO 0 88.4 433
15:13:52 22 991 219 3 SO 0 87.7 436
15:16:48 22 991 231 2 0 87.2 430
15:19:49 23 991 219 0 SO 0 86.9 430
15:22:47 23 992 206 4 SO 0 86.3 430
15:25:48 23 992 205 0 O 0 85.3 433
15:28:48 23 991 200 0 O 0 84.1 433
15:31:50 23 991 202 4 SO 0 83.6 433
15:34:47 23 991 213 4 S 0 83.8 433
15:37:48 23 991 218 3 SO 0 84 434
15:40:48 23 991 220 2 S 0 84.2 430
15:43:51 23 991 214 1 S 0 83.2 428
15:46:49 23 991 220 3 SW 0 82.4 427
15:49:46 23 991 223 0 O 0 83 430
15:52:49 23 991 222 3 NW 0 81.9 433
15:55:48 23 991 223 3 SO 0 81.6 433
15:58:47 23 991 227 2 N 0 80.4 433
16:01:49 23 991 242 2 SO 0 79.9 430
16:04:48 24 991 232 2 O 0 78.5 436
16:07:45 24 991 231 1 O 0 78.6 445
16:10:31 22 991 231 8 NO 0 71.5 442
16:13:46 24 991 236 0 O 0 74.8 436
16:16:49 24 991 237 1 NO 0 74.3 431
16:19:51 25 991 247 3 NO 0 72.7 436
16:22:30 23 991 247 3 N 0 64.5 439
16:25:47 26 991 235 8 N 0 66.2 436
16:28:49 26 991 247 6 NO 0 65.9 447
16:31:48 27 990 243 6 N 0 60.9 462
16:34:50 27 991 246 6 N 0 62.2 474
16:37:30 26 991 246 4 O 0 53.9 477
16:40:47 28 990 247 7 NO 0 59.3 477
16:43:49 29 990 247 2 S 0 61.1 483
16:46:49 29 991 247 3 NW 0 55.1 489
16:49:47 30 990 247 2 NO 0 55.5 495
16:52:48 30 990 247 4 N 0 56.5 498
16:55:46 31 991 247 3 SO 0 55.3 500
16:58:50 31 990 236 0 NW 0 52.9 503
17:01:47 29 990 226 0 0 55 513
17:04:47 28 991 240 0 SO 0 60.8 509
17:07:48 27 990 233 3 SO 0 67.6 512
17:10:50 27 991 219 2 N 0 63 527
17:13:47 26 990 214 4 NO 0 63.2 538
17:16:46 25 990 212 2 O 0 65.1 537
17:19:47 25 991 211 3 N 0 68 531
17:22:47 24 990 208 0 N 0 69.4 532
17:25:32 24 991 205 2 NO 0 56 541
17:28:50 24 991 196 2 O 0 72.1 553
17:31:47 24 991 189 2 N 0 71.8 557
17:34:49 24 991 181 0 NO 0 72.2 562
17:37:47 23 991 171 4 NO 0 73.2 567
17:40:46 23 991 164 0 O 0 73.7 582
17:43:47 23 991 160 0 N 0 74.2 585
17:46:46 23 991 160 3 NO 0 74.7 591
17:49:48 23 990 161 2 NW 0 76.9 585
17:52:46 23 991 157 1 O 0 77.5 585
17:55:46 23 990 141 3 S 0 78.7 592
17:58:47 23 991 123 3 SO 0 78.9 600
18:01:48 22 991 133 0 SO 0.2575 80.2 618
18:04:49 22 991 149 0 SO 0 82.3 614
18:07:52 22 991 159 6 SO 0 86.7 612
18:10:31 21 991 168 4 SW 0 71.7 609
18:13:46 21 991 174 4 S 0 90 611
18:16:46 21 991 175 6 S 0 90.6 608
18:19:50 21 991 176 6 SW 0 90.9 614
18:22:47 21 991 178 4 SW 0.2575 91.4 612
18:25:47 20 991 183 7 S 0 91.8 614
18:28:49 20 991 187 2 SW 0 92.8 609
18:31:46 20 991 198 0 S 0.2575 94.4 611
18:34:49 20 991 209 1 S 0.2575 95.1 604
18:37:47 19 991 206 7 S 0 95.7 608
18:40:48 19 991 208 4 SO 0.515 96 601
18:43:48 19 991 214 0 S 0.2575 96 597
18:46:50 19 990 220 0 NW 0 96 598
18:49:48 19 991 224 1 NW 0 96 600
18:52:49 19 991 225 0 NW 0 95.9 604
18:55:48 19 991 228 1 NW 0 96.4 603
18:58:48 19 991 230 0 NW 0 96 597
19:01:51 20 991 228 0 NW 0 95.6 600
19:04:49 20 991 226 0 NW 0 95.7 600
19:07:49 20 991 226 0 NW 0 95.7 600
19:10:49 20 991 220 3 S 0 95.8 597
19:13:50 20 991 216 1 SO 0 95.5 600
19:16:49 20 990 210 1 SO 0 95.3 600
19:19:49 21 991 209 0 SO 0 95.4 594
19:22:51 21 991 212 0 SO 0 95 589
19:25:49 21 991 218 0 SO 0 94.8 585
19:28:50 21 991 218 0 SO 0 94.8 586
19:31:49 21 991 220 0 SO 0 94.7 589
19:34:49 21 991 217 0 SO 0 94.5 586
19:37:49 21 991 217 0 SO 0 94.5 585
19:40:49 21 991 218 0 SO 0 94.4 585
19:43:50 21 991 219 0 SO 0 94.2 588
19:46:47 21 991 219 1 SO 0 94.1 597
19:49:49 21 991 218 0 SO 0 93.8 603
19:52:47 21 991 217 3 N 0 93.7 595
19:55:48 21 991 219 2 N 0 93.1 589
19:58:48 21 991 221 0 NW 0 93.1 583
20:01:49 21 991 221 3 NO 0 93.5 585
20:04:48 21 991 220 2 W 0 93.2 585
20:07:48 21 991 219 0 W 0 93 585
20:10:50 22 991 217 0 W 0 92.8 580
20:13:47 22 991 215 0 W 0 92.9 585
20:16:49 22 991 214 0 W 0 93 589
20:19:47 22 991 214 0 O 0 92.8 591
20:22:49 22 991 210 3 W 0 92.9 588
20:25:50 22 991 210 0 SW 0 92.6 580
20:28:47 22 991 208 0 W 0 92.3 579
20:31:48 22 991 206 0 W 0 92.2 577
20:34:49 22 991 206 0 W 0 91.9 570
20:37:47 22 991 205 0 W 0 91.8 564
20:40:48 21 991 202 0 W 0 92.1 564
20:43:46 21 991 198 0 W 0 92.3 570
20:46:49 21 991 191 0 W 0 91.9 571
20:49:48 21 991 186 0 W 0 91.5 573
20:52:49 21 991 184 0 W 0 90.8 565
20:55:46 21 991 184 0 W 0 91 564
20:58:47 21 991 184 0 W 0 91.8 565
21:01:50 21 991 182 0 SO 0 92 569
21:04:48 20 991 176 0 SO 0 92.6 564
21:07:54 20 991 167 0 SO 0 93.2 568
21:10:49 20 991 152 0 SO 0 93.3 563
21:13:50 20 992 144 0 SO 0 93.8 568
21:16:48 20 992 147 0 SO 0 94 576
21:19:48 20 991 149 0 SO 0 94.2 577
21:22:48 20 992 143 0 SO 0 94.3 567
21:25:49 20 992 135 0 O 0 94.5 565
21:28:46 20 992 120 0 O 0 94.6 560
21:31:47 20 991 105 0 O 0 94.5 568
21:34:48 20 991 99 0 O 0 94.7 565
21:37:46 19 991 94 0 O 0 95.4 566
21:40:49 19 992 80 0 NW 0 95.9 565
21:43:46 19 991 66 0 N 0 96.1 562
21:46:47 19 992 59 1 NW 0 96.6 561
21:49:47 19 991 51 1 NW 0 96.6 562
21:52:48 19 992 44 0 NW 0 96.6 567
21:55:48 19 992 38 0 NW 0 96.6 564
21:58:49 19 991 29 0 NW 0 96.6 562
22:01:50 19 991 22 0 NW 0 96.6 568
22:04:47 19 992 15 0 NW 0 96.6 566
22:07:49 19 992 11 0 NW 0 96.6 565
22:10:47 19 992 8 0 NW 0 96.6 562
22:13:48 19 992 6 0 NW 0 96.6 567
22:16:48 18 993 4 0 NW 0 96.6 564
22:19:47 18 992 3 0 NW 0 96.6 566
22:22:49 18 992 0 0 NW 0 96.6 559
22:25:48 18 992 0 0 NW 0 96.6 559
22:28:48 18 992 0 0 NW 0 96.6 565
22:31:47 18 992 0 0 NW 0 96.6 569
22:34:49 18 993 0 0 NW 0 96.6 562
22:37:50 18 993 0 0 NW 0 96.6 564
22:40:49 18 992 0 0 NW 0 96.6 559
22:43:48 18 993 0 0 NW 0 96.6 556
22:46:48 18 993 0 0 NW 0 96.6 557
22:49:49 18 993 0 0 NW 0 96.6 550
22:52:51 18 993 0 0 NW 0 96.6 554
22:55:46 18 993 0 0 NW 0 96.6 559
22:58:49 18 993 0 0 NW 0 96.6 556
23:01:50 18 993 0 0 NW 0 96.6 553
23:04:50 18 992 0 0 NW 0 96.6 553
23:07:48 18 993 0 0 NW 0 96.6 550
23:10:46 18 992 0 0 NW 0 96.6 553
23:13:48 18 994 0 0 NW 0 96.6 547
23:16:46 18 992 0 0 NW 0 96.6 552
23:19:48 18 992 0 0 NW 0 96.6 553
23:22:49 18 992 0 1 NW 0 96.6 555
23:25:51 18 992 0 0 NW 0 96.6 556
23:28:48 18 991 0 0 NW 0 96.6 559
23:31:48 18 992 0 0 NW 0 96.6 556
23:34:48 18 992 0 0 NW 0 96.6 552
23:37:50 18 993 0 0 NW 0 96.6 553
23:40:48 18 993 0 0 NW 0 96.6 555
23:43:46 18 992 0 0 NW 0 96.6 553
23:46:47 18 992 0 0 NW 0 96.6 545
23:49:48 18 992 0 0 NW 0 96.6 544
23:52:47 18 992 0 3 SO 0 96.6 547
23:55:49 18 992 0 0 NW 0 96.6 547
23:58:49 17 993 0 0 NW 0 96.6 550

Letzte Änderung : 04-Jan-2022
Copyright Jens Köhler, Wolfsburg, Obere Dorfstraße 10d